Weather History for Cherry Point, NC

Change the Weather History Date:

Monday, November 5, 2012

  Actual Average Record
Temperature  
Mean Temperature 50 °F -  
Max Temperature 57 °F 66 °F 82 °F (2003)
Min Temperature 44 °F 45 °F 33 °F (1999)
Degree Days  
Heating Degree Days 14    
Moisture  
Dew Point 38 °F    
Average Humidity 66    
Maximum Humidity 83    
Minimum Humidity 45    
Precipitation  
Precipitation 0.00 in - - ()
Sea Level Pressure  
Sea Level Pressure 30.04 in    
Wind  
Wind Speed 9 mph ()    
Max Wind Speed 14 mph    
Max Gust Speed 21 mph    
Visibility 10.0 miles    
Events      
Averages and records for this station are not official NWS values.
T = Trace of Precipitation, MM = Missing Value Source: Averaged Metar Reports

Daily Weather History Graph

Daily Weather History Graph

Search for Another Location

Airport:

Trip Planner

Search our weather history database for the weather conditions in past years. The results will help you decide how hot, cold, wet, or windy it might be!

Date:

Astronomy

Nov. 05, 2012 Rise Set
Actual Time 6:32 AM EST 5:09 PM EST
Civil Twilight 6:06 AM EST 5:35 PM EST
Nautical Twilight 5:36 AM EST 6:05 PM EST
Astronomical Twilight 5:06 AM EST 6:35 PM EST
Moon 10:44 PM EST (11/5) 11:50 AM EST (11/5)
Length of Visible Light 11h 29m
Length of Day
10h 36m
Waning Gibbous, 63% of the Moon is Illuminated
Nov 5
Waning Gibbous
Nov 6
Last Quarter
Nov 13
New
Nov 20
First Quarter
Nov 28
Full

Hourly Weather History & Observations

Time (EST) Temp. Windchill Dew Point Humidity Pressure Visibility Wind Dir Wind Speed Gust Speed Precip Events Conditions
12:54 AM 48.0 °F - 43.0 °F 83% 29.98 in 10.0 mi NNE 6.9 mph - N/A   Clear
1:54 AM 48.0 °F - 43.0 °F 83% 29.98 in 10.0 mi North 8.1 mph - N/A   Scattered Clouds
2:54 AM 48.0 °F - 43.0 °F 83% 29.99 in 10.0 mi North 5.8 mph - N/A   Overcast
3:54 AM 48.0 °F - 41.0 °F 77% 29.97 in 10.0 mi North 11.5 mph - N/A   Partly Cloudy
4:54 AM 46.9 °F - 39.9 °F 77% 29.98 in 10.0 mi NNE 11.5 mph - N/A   Clear
5:54 AM 46.9 °F - 39.9 °F 77% 30.00 in 10.0 mi NNE 12.7 mph - N/A   Mostly Cloudy
6:54 AM 48.0 °F - 39.9 °F 74% 30.02 in 10.0 mi NNE 13.8 mph - N/A   Mostly Cloudy
7:54 AM 48.0 °F - 39.9 °F 74% 30.05 in 10.0 mi NNE 12.7 mph - N/A   Mostly Cloudy
8:54 AM 48.9 °F - 39.9 °F 71% 30.06 in 10.0 mi North 13.8 mph - N/A   Clear
9:54 AM 52.0 °F - 39.0 °F 61% 30.06 in 10.0 mi North 13.8 mph - N/A   Clear
10:54 AM 53.1 °F - 37.0 °F 55% 30.05 in 10.0 mi North 12.7 mph - N/A   Clear
11:54 AM 54.0 °F - 36.0 °F 51% 30.04 in 10.0 mi North 12.7 mph 20.7 mph N/A   Clear
12:54 PM 55.9 °F - 35.1 °F 45% 30.02 in 10.0 mi North 11.5 mph - N/A   Clear
1:54 PM 57.0 °F - 36.0 °F 45% 30.01 in 10.0 mi North 10.4 mph - N/A   Clear
2:54 PM 55.9 °F - 35.1 °F 45% 30.01 in 10.0 mi NNE 12.7 mph 18.4 mph N/A   Clear
3:54 PM 55.9 °F - 36.0 °F 47% 30.02 in 10.0 mi NNE 10.4 mph 20.7 mph N/A   Clear
4:54 PM 52.0 °F - 34.0 °F 50% 30.04 in 10.0 mi NNE 9.2 mph - N/A   Clear
5:54 PM 48.9 °F - 36.0 °F 61% 30.05 in 10.0 mi NE 8.1 mph - N/A   Clear
6:54 PM 46.9 °F - 35.1 °F 63% 30.07 in 10.0 mi NE 4.6 mph - N/A   Clear
7:54 PM 46.9 °F - 35.1 °F 63% 30.08 in 10.0 mi NNE 9.2 mph - N/A   Clear
8:54 PM 46.0 °F 41.0 °F 37.9 °F 73% 30.10 in 10.0 mi NE 10.4 mph - N/A   Clear
9:54 PM 45.0 °F 39.7 °F 37.9 °F 76% 30.12 in 10.0 mi NE 10.4 mph - N/A   Clear
10:54 PM 44.1 °F 38.6 °F 37.9 °F 79% 30.11 in 10.0 mi NE 10.4 mph - N/A   Clear
11:54 PM 44.1 °F 40.1 °F 37.9 °F 79% 30.10 in 10.0 mi NNE 6.9 mph - N/A   Clear